Fort Polk, LA

5:27 AM CDT on October 16, 2019 (GMT -0500)
Fort Polk

Weather History for KAQV - August, 2019

Change the Weather History Date:

Saturday, August 24, 2019

  Actual Average (WUND) Record (WUND)
Temperature  
Mean Temperature 80 °F -  
Max Temperature 89 °F - - (-1)
Min Temperature 73 °F - - (-1)
Cooling Degree Days 16    
Growing Degree Days 30 (Base 50)    
Moisture  
Dew Point 73 °F    
Average Humidity 87    
Maximum Humidity 96    
Minimum Humidity 57    
Precipitation  
Precipitation 0.07 in - - ()
Sea Level Pressure  
Sea Level Pressure 29.93 in    
Wind  
Wind Speed 3 mph (SSE)    
Max Wind Speed 8 mph    
Max Gust Speed 18 mph    
Visibility 9 miles    
Events Rain    
Averages and records for this station are not official NWS values.
T = Trace of Precipitation, MM = Missing Value Source: NWS Daily Summary

Daily Weather History Graph

Daily Weather History Graph

Search for Another Location

Airport or City:

Astronomy

Aug. 24, 2019 Rise Set
Actual Time 6:44 AM CDT 7:46 PM CDT
Civil Twilight 6:19 AM CDT 8:11 PM CDT
Nautical Twilight 5:49 AM CDT 8:41 PM CDT
Astronomical Twilight 5:18 AM CDT 9:11 PM CDT
Moon 12:45 AM CDT (8/24) 2:52 PM CDT (8/24)
Length of Visible Light 13h 52m
Length of Day
13h 02m
Last Quarter, 39% of the Moon is Illuminated
Aug 24
Last Quarter
Aug 30
New
Sep 5
First Quarter
Sep 13
Full
Sep 21
Last Quarter

Hourly Weather History & Observations

Time (CDT) Temp. Heat Index Dew Point Humidity Pressure Visibility Wind Dir Wind Speed Gust Speed Precip Events Conditions
12:56 AM 73.0 °F - 71.1 °F 93% 29.94 in 10.0 mi SSE 3.5 mph - N/A   Clear
2:56 AM 73.0 °F - 71.1 °F 93% 29.95 in 10.0 mi Calm Calm - N/A   Scattered Clouds
3:56 AM 73.0 °F - 71.1 °F 93% 29.96 in 10.0 mi Calm Calm - N/A   Overcast
4:56 AM 73.0 °F - 71.1 °F 93% 29.96 in 10.0 mi Calm Calm - N/A   Scattered Clouds
5:09 AM 73.0 °F - 71.1 °F 93% 29.97 in 10.0 mi Calm Calm - N/A   Mostly Cloudy
5:24 AM 73.0 °F - 71.1 °F 93% 29.97 in 1.8 mi Calm Calm - N/A   Overcast
5:47 AM 73.0 °F - 71.1 °F 93% 29.96 in 3.0 mi Calm Calm - N/A   Overcast
5:56 AM 73.0 °F - 72.0 °F 96% 29.96 in 5.0 mi Calm Calm - N/A   Overcast
6:56 AM 73.9 °F - 72.0 °F 93% 29.97 in 8.0 mi Variable 3.5 mph - N/A   Overcast
7:56 AM 75.0 °F - 73.0 °F 94% 29.96 in 10.0 mi Variable 3.5 mph - N/A   Scattered Clouds
8:56 AM 81.0 °F 86.2 °F 73.9 °F 79% 29.96 in 10.0 mi Variable 3.5 mph - N/A   Scattered Clouds
9:56 AM 81.0 °F 85.2 °F 72.0 °F 74% 29.96 in 10.0 mi Variable 4.6 mph - N/A   Partly Cloudy
10:56 AM 87.1 °F 94.5 °F 73.0 °F 63% 29.96 in 10.0 mi Variable 5.8 mph - N/A   Partly Cloudy
11:56 AM 88.0 °F 94.7 °F 72.0 °F 59% 29.95 in 10.0 mi Variable 3.5 mph - N/A   Mostly Cloudy
12:56 PM 88.0 °F 93.8 °F 71.1 °F 57% 29.93 in 10.0 mi Variable 4.6 mph - N/A   Mostly Cloudy
1:56 PM 82.9 °F 88.0 °F 72.0 °F 69% 29.94 in 10.0 mi Variable 4.6 mph 16.1 mph N/A   Mostly Cloudy
2:56 PM 88.0 °F 95.6 °F 73.0 °F 61% 29.90 in 10.0 mi SSE 8.1 mph 17.3 mph N/A   Partly Cloudy
3:56 PM 79.0 °F - 73.9 °F 84% 29.91 in 10.0 mi Variable 5.8 mph 18.4 mph 0.01 in   Mostly Cloudy
4:17 PM 77.0 °F - 73.9 °F 90% 29.91 in 1.8 mi Variable 6.9 mph - 0.02 in Rain Rain
4:29 PM 77.0 °F - 73.9 °F 90% 29.90 in 2.0 mi Variable 4.6 mph - 0.04 in Rain Rain
4:44 PM 77.0 °F - 75.0 °F 94% 29.90 in 6.0 mi Calm Calm - 0.06 in Rain Light Rain
4:56 PM 77.0 °F - 75.0 °F 94% 29.89 in 10.0 mi Variable 3.5 mph - 0.06 in   Overcast
5:38 PM 78.1 °F - 73.9 °F 87% 29.89 in 10.0 mi Variable 3.5 mph - N/A   Overcast
5:56 PM 78.1 °F - 75.0 °F 90% 29.88 in 10.0 mi Variable 3.5 mph - N/A   Mostly Cloudy
6:11 PM 79.0 °F - 75.0 °F 88% 29.90 in 10.0 mi Variable 6.9 mph - N/A   Mostly Cloudy
6:42 PM 77.0 °F - 73.9 °F 90% 29.90 in 10.0 mi SSE 6.9 mph - N/A   Overcast
6:51 PM 77.0 °F - 73.4 °F 89% 29.90 in 10.0 mi Variable 5.8 mph - N/A   Overcast
6:56 PM 77.0 °F - 73.9 °F 90% 29.90 in 10.0 mi Variable 4.6 mph - N/A   Overcast
7:24 PM 77.0 °F - 73.9 °F 90% 29.91 in 10.0 mi Variable 3.5 mph - N/A   Overcast
7:47 PM 77.0 °F - 73.0 °F 88% 29.92 in 10.0 mi Variable 3.5 mph - N/A   Overcast
7:56 PM 75.9 °F - 73.0 °F 91% 29.91 in 10.0 mi Calm Calm - N/A   Overcast
8:36 PM 75.9 °F - 73.0 °F 91% 29.92 in 10.0 mi Calm Calm - N/A   Overcast
8:56 PM 75.9 °F - 73.0 °F 91% 29.91 in 10.0 mi Calm Calm - N/A   Overcast
9:53 PM 75.2 °F - 73.4 °F 94% 29.93 in 10.0 mi Calm Calm - N/A   Overcast
9:56 PM 75.9 °F - 73.0 °F 91% 29.93 in 10.0 mi SSE 3.5 mph - N/A   Overcast
10:40 PM 75.0 °F - 73.0 °F 94% 29.93 in 10.0 mi Variable 3.5 mph - N/A   Mostly Cloudy
10:56 PM 75.9 °F - 73.0 °F 91% 29.93 in 10.0 mi Calm Calm - N/A   Overcast
11:56 PM 75.9 °F - 73.0 °F 91% 29.92 in 10.0 mi Calm Calm - N/A   Overcast